• In Uzbekistan
  • List of Countries
  • For 7 days
  • Water Temperature
  • Satellite Maps
  • Weather Map
  • Weather Widgets
  • user-avatar
    Login

    Hourly Weather Cabreuva

    Today, 22 June, Friday

    Time Temperature Precipitation Wind Pressure Humidity
    00:00 +19°C° 0 mm 1 mps 707 mmHg 78%
    01:00 +18°C° 0 mm 1 mps 707 mmHg 79%
    02:00 +18°C° 0 mm 1 mps 707 mmHg 80%
    03:00 +18°C° 0 mm 1 mps 706 mmHg 81%
    04:00 +18°C° 0 mm 1 mps 706 mmHg 82%
    05:00 +16°C° 0 mm 1 mps 706 mmHg 83%
    06:00 +16°C° 0 mm 1 mps 706 mmHg 84%
    07:00 +18°C° 0 mm 1 mps 707 mmHg 79%
    08:00 +20°C° 0 mm 1 mps 707 mmHg 75%
    09:00 +21°C° 0 mm 1 mps 708 mmHg 71%
    10:00 +23°C° 0.1 mm 2 mps 708 mmHg 65%
    11:00 +24°C° 0.1 mm 2 mps 708 mmHg 59%
    12:00 +26°C° 0.1 mm 2 mps 708 mmHg 53%
    13:00 +26°C° 0 mm 2 mps 707 mmHg 51%
    14:00 +26°C° 0 mm 2 mps 707 mmHg 50%
    15:00 +26°C° 0 mm 2 mps 707 mmHg 48%
    16:00 +25°C° 0 mm 2 mps 706 mmHg 55%
    17:00 +23°C° 0 mm 1 mps 706 mmHg 61%
    18:00 +21°C° 0 mm 1 mps 706 mmHg 68%
    19:00 +21°C° 0 mm 1 mps 706 mmHg 70%
    20:00 +20°C° 0 mm 1 mps 707 mmHg 73%
    21:00 +19°C° 0 mm 1 mps 707 mmHg 75%
    22:00 +19°C° 0 mm 1 mps 707 mmHg 77%
    23:00 +19°C° 0 mm 1 mps 707 mmHg 79%

    Tomorrow, 23 June, Saturday

    Time Temperature Precipitation Wind Pressure Humidity
    00:00 +18°C° 0 mm 1 mps 706 mmHg 80%
    01:00 +18°C° 0 mm 1 mps 706 mmHg 80%
    02:00 +18°C° 0 mm 1 mps 706 mmHg 81%
    03:00 +16°C° 0 mm 1 mps 706 mmHg 81%
    04:00 +16°C° 0 mm 1 mps 706 mmHg 80%
    05:00 +16°C° 0 mm 1 mps 706 mmHg 80%
    06:00 +16°C° 0 mm 1 mps 705 mmHg 79%
    07:00 +18°C° 0 mm 1 mps 706 mmHg 74%
    08:00 +20°C° 0 mm 1 mps 707 mmHg 68%
    09:00 +21°C° 0 mm 1 mps 707 mmHg 63%
    10:00 +23°C° 0 mm 2 mps 707 mmHg 57%
    11:00 +24°C° 0 mm 3 mps 707 mmHg 51%
    12:00 +26°C° 0 mm 3 mps 708 mmHg 45%
    13:00 +26°C° 0 mm 3 mps 707 mmHg 45%
    14:00 +27°C° 0 mm 3 mps 706 mmHg 45%
    15:00 +27°C° 0 mm 4 mps 706 mmHg 45%
    16:00 +25°C° 0 mm 3 mps 706 mmHg 51%
    17:00 +23°C° 0 mm 2 mps 706 mmHg 57%
    18:00 +22°C° 0 mm 1 mps 705 mmHg 62%
    19:00 +21°C° 0 mm 1 mps 706 mmHg 64%
    20:00 +20°C° 0 mm 1 mps 706 mmHg 66%
    21:00 +20°C° 0 mm 1 mps 707 mmHg 68%
    22:00 +19°C° 0 mm 1 mps 707 mmHg 69%
    23:00 +19°C° 0 mm 1 mps 707 mmHg 70%

    Day after tomorrow, 24 June, Sunday

    Time Temperature Precipitation Wind Pressure Humidity
    00:00 +19°C° 0 mm 1 mps 707 mmHg 71%
    01:00 +19°C° 0 mm 1 mps 707 mmHg 72%
    02:00 +18°C° 0 mm 1 mps 706 mmHg 74%
    03:00 +18°C° 0 mm 1 mps 706 mmHg 75%
    04:00 +18°C° 0 mm 1 mps 706 mmHg 76%
    05:00 +16°C° 0 mm 1 mps 706 mmHg 77%
    06:00 +16°C° 0 mm 1 mps 707 mmHg 79%
    07:00 +19°C° 0 mm 1 mps 707 mmHg 73%
    08:00 +20°C° 0 mm 1 mps 708 mmHg 68%
    09:00 +22°C° 0 mm 1 mps 708 mmHg 63%
    10:00 +23°C° 0 mm 1 mps 708 mmHg 56%
    11:00 +25°C° 0 mm 2 mps 708 mmHg 50%
    12:00 +27°C° 0 mm 2 mps 708 mmHg 43%
    13:00 +27°C° 0 mm 2 mps 708 mmHg 43%
    14:00 +27°C° 0 mm 2 mps 707 mmHg 42%
    15:00 +27°C° 0 mm 2 mps 707 mmHg 42%
    16:00 +25°C° 0 mm 1 mps 707 mmHg 49%
    17:00 +23°C° 0 mm 1 mps 707 mmHg 57%
    18:00 +21°C° 0 mm 1 mps 707 mmHg 65%
    19:00 +20°C° 0 mm 2 mps 707 mmHg 70%
    20:00 +19°C° 0 mm 2 mps 707 mmHg 76%
    21:00 +18°C° 0 mm 3 mps 708 mmHg 82%
    22:00 +18°C° 0 mm 3 mps 708 mmHg 84%
    23:00 +18°C° 0 mm 2 mps 708 mmHg 86%

    25 June, Monday

    Time Temperature Precipitation Wind Pressure Humidity
    00:00 +17°C° 0 mm 2 mps 708 mmHg 88%
    01:00 +17°C° 0 mm 2 mps 707 mmHg 89%
    02:00 +17°C° 0 mm 2 mps 707 mmHg 90%
    03:00 +16°C° 0 mm 2 mps 706 mmHg 90%
    04:00 +16°C° 0 mm 2 mps 706 mmHg 89%
    05:00 +16°C° 0 mm 2 mps 706 mmHg 89%
    06:00 +16°C° 0 mm 1 mps 706 mmHg 88%
    07:00 +18°C° 0 mm 1 mps 707 mmHg 81%
    08:00 +20°C° 0 mm 1 mps 707 mmHg 74%
    09:00 +21°C° 0 mm 1 mps 708 mmHg 68%
    10:00 +23°C° 0 mm 2 mps 708 mmHg 61%
    11:00 +24°C° 0 mm 3 mps 708 mmHg 54%
    12:00 +26°C° 0 mm 3 mps 708 mmHg 47%
    13:00 +26°C° 0 mm 3 mps 707 mmHg 46%
    14:00 +27°C° 0 mm 3 mps 707 mmHg 45%
    15:00 +27°C° 0 mm 3 mps 706 mmHg 44%
    16:00 +25°C° 0 mm 2 mps 706 mmHg 49%
    17:00 +23°C° 0 mm 2 mps 706 mmHg 55%
    18:00 +22°C° 0 mm 1 mps 706 mmHg 61%
    19:00 +21°C° 0 mm 1 mps 706 mmHg 63%
    20:00 +20°C° 0 mm 1 mps 706 mmHg 64%
    21:00 +20°C° 0 mm 1 mps 706 mmHg 66%
    22:00 +19°C° 0 mm 1 mps 706 mmHg 67%
    23:00 +19°C° 0 mm 1 mps 706 mmHg 68%

    26 June, Tuesday

    Time Temperature Precipitation Wind Pressure Humidity
    00:00 +19°C° 0 mm 1 mps 706 mmHg 69%
    01:00 +18°C° 0 mm 1 mps 706 mmHg 70%
    02:00 +18°C° 0 mm 1 mps 706 mmHg 72%
    03:00 +18°C° 0 mm 1 mps 705 mmHg 73%
    04:00 +18°C° 0 mm 1 mps 706 mmHg 75%
    05:00 +16°C° 0 mm 1 mps 706 mmHg 76%
    06:00 +16°C° 0 mm 1 mps 706 mmHg 77%
    07:00 +19°C° 0 mm 1 mps 706 mmHg 72%
    08:00 +20°C° 0 mm 1 mps 707 mmHg 67%
    09:00 +22°C° 0 mm 1 mps 708 mmHg 62%
    10:00 +23°C° 0 mm 1 mps 708 mmHg 57%
    11:00 +25°C° 0 mm 2 mps 708 mmHg 51%
    12:00 +27°C° 0 mm 2 mps 707 mmHg 46%
    13:00 +27°C° 0 mm 2 mps 707 mmHg 45%
    14:00 +27°C° 0 mm 1 mps 706 mmHg 44%
    15:00 +27°C° 0 mm 1 mps 706 mmHg 43%
    16:00 +25°C° 0 mm 1 mps 706 mmHg 49%
    17:00 +24°C° 0 mm 1 mps 706 mmHg 55%
    18:00 +22°C° 0 mm 1 mps 706 mmHg 61%
    19:00 +21°C° 0 mm 1 mps 706 mmHg 64%
    20:00 +21°C° 0 mm 1 mps 706 mmHg 66%
    21:00 +20°C° 0 mm 1 mps 707 mmHg 68%
    22:00 +20°C° 0 mm 1 mps 706 mmHg 70%
    23:00 +19°C° 0 mm 1 mps 706 mmHg 71%

    27 June, Wednesday

    Time Temperature Precipitation Wind Pressure Humidity
    00:00 +19°C° 0 mm 1 mps 706 mmHg 73%
    01:00 +19°C° 0 mm 1 mps 706 mmHg 74%
    02:00 +18°C° 0 mm 1 mps 706 mmHg 75%
    03:00 +18°C° 0 mm 1 mps 706 mmHg 76%
    04:00 +18°C° 0 mm 1 mps 706 mmHg 76%
    05:00 +18°C° 0 mm 1 mps 706 mmHg 76%
    06:00 +16°C° 0 mm 1 mps 706 mmHg 76%
    07:00 +19°C° 0 mm 1 mps 706 mmHg 71%
    08:00 +21°C° 0 mm 1 mps 707 mmHg 65%
    09:00 +22°C° 0 mm 1 mps 707 mmHg 60%
    10:00 +24°C° 0 mm 2 mps 707 mmHg 55%
    11:00 +25°C° 0 mm 2 mps 707 mmHg 49%
    12:00 +27°C° 0 mm 2 mps 707 mmHg 43%
    13:00 +27°C° 0 mm 2 mps 707 mmHg 43%
    14:00 +27°C° 0 mm 2 mps 706 mmHg 42%
    15:00 +27°C° 0 mm 2 mps 706 mmHg 42%
    16:00 +26°C° 0 mm 2 mps 706 mmHg 48%
    17:00 +24°C° 0 mm 1 mps 706 mmHg 53%
    18:00 +22°C° 0 mm 1 mps 706 mmHg 59%
    19:00 +21°C° 0 mm 1 mps 706 mmHg 61%
    20:00 +21°C° 0 mm 1 mps 706 mmHg 64%
    21:00 +20°C° 0 mm 1 mps 706 mmHg 66%
    22:00 +20°C° 0 mm 1 mps 706 mmHg 68%
    23:00 +19°C° 0 mm 1 mps 706 mmHg 70%
    Show more